| time (UTC) | temp C | wind direction | speed KPH | gust KPH | rain 1hr cm | rain 24hr cm | rain mn cm | humidity % | barometer mb |
| 20260831080010 | 15 | 220 | 8.0 | 0.0 | 0.00 | 0.00 | 0.00 | 85 | 1006.1 |
| 20260831074510 | 17 | 220 | 8.0 | 0.0 | 0.00 | 0.00 | 0.00 | 74 | 1005.9 |
| 20260831073009 | 17 | 180 | 6.4 | 0.0 | 0.00 | 0.00 | 0.00 | 74 | 1005.9 |
| 20260831071509 | 17 | 130 | 3.2 | 0.0 | 0.00 | 0.00 | 0.00 | 71 | 1005.5 |
| 20260831070009 | 17 | 130 | 3.2 | 0.0 | 0.00 | 0.00 | 0.00 | 71 | 1005.5 |
| 20260831064509 | 16 | 130 | 3.2 | 0.0 | 0.00 | 0.00 | 0.00 | 78 | 1005.6 |
| 20260831063010 | 16 | 50 | 1.6 | 0.0 | 0.00 | 0.00 | 0.00 | 78 | 1005.6 |
| 20260831060009 | 16 | 140 | 4.8 | 0.0 | 0.00 | 0.00 | 0.00 | 73 | 1005.6 |
| 20260831054510 | 15 | 110 | 1.6 | 0.0 | 0.00 | 0.00 | 0.00 | 79 | 1005.9 |
| 20260831053010 | 15 | 110 | 1.6 | 0.0 | 0.00 | 0.00 | 0.00 | 79 | 1005.9 |
| 20260831051510 | 15 | 110 | 1.6 | 0.0 | 0.00 | 0.00 | 0.00 | 79 | 1005.6 |
| 20260831050009 | 15 | 140 | 4.8 | 0.0 | 0.00 | 0.00 | 0.00 | 79 | 1005.6 |
| 20260831044510 | 15 | 160 | 3.2 | 0.0 | 0.00 | 0.00 | 0.00 | 77 | 1006.1 |
| 20260831043009 | 15 | 160 | 3.2 | 0.0 | 0.00 | 0.00 | 0.00 | 77 | 1006.1 |
| 20260831041510 | 13 | 180 | 1.6 | 0.0 | 0.00 | 0.00 | 0.00 | 85 | 1006.3 |
| 20260831040010 | 13 | 180 | 1.6 | 0.0 | 0.00 | 0.00 | 0.00 | 85 | 1006.3 |
| 20260831034510 | 15 | 180 | 1.6 | 0.0 | 0.00 | 0.00 | 0.00 | 81 | 1006.3 |
| 20260831033009 | 15 | 170 | 1.6 | 0.0 | 0.00 | 0.00 | 0.00 | 81 | 1006.3 |
| 20260831031509 | 16 | 170 | 1.6 | 0.0 | 0.00 | 0.00 | 0.00 | 77 | 1006.4 |
| 20260831030009 | 16 | 190 | 4.8 | 0.0 | 0.00 | 0.00 | 0.00 | 77 | 1006.4 |
| 20260830204510 | 20 | 250 | 4.8 | 0.0 | 0.00 | 0.00 | 0.00 | 61 | 1007.2 |
| 20260830203009 | 20 | 260 | 3.2 | 0.0 | 0.00 | 0.00 | 0.00 | 61 | 1007.2 |
| 20260830201509 | 21 | 260 | 3.2 | 0.0 | 0.00 | 0.00 | 0.00 | 59 | 1007.0 |
| 20260830200009 | 21 | 270 | 6.4 | 0.0 | 0.00 | 0.00 | 0.00 | 59 | 1007.0 |
| 20260830194509 | 21 | 270 | 6.4 | 0.0 | 0.00 | 0.00 | 0.00 | 56 | 1006.9 |
| 20260830193010 | 21 | 260 | 8.0 | 0.0 | 0.00 | 0.00 | 0.00 | 56 | 1006.9 |
| 20260830191509 | 22 | 260 | 8.0 | 0.0 | 0.00 | 0.00 | 0.00 | 54 | 1006.7 |
| 20260830190010 | 22 | 260 | 8.0 | 0.0 | 0.00 | 0.00 | 0.00 | 54 | 1006.7 |
| 20260830184509 | 22 | 260 | 8.0 | 0.0 | 0.00 | 0.00 | 0.00 | 52 | 1006.3 |
| 20260830183009 | 22 | 270 | 12.9 | 0.0 | 0.00 | 0.00 | 0.00 | 52 | 1006.3 |
| 20260830181510 | 23 | 270 | 16.1 | 0.0 | 0.00 | 0.00 | 0.00 | 49 | 1006.1 |
| 20260830180010 | 23 | 270 | 16.1 | 0.0 | 0.00 | 0.00 | 0.00 | 49 | 1006.1 |
| 20260830174509 | 23 | 270 | 16.1 | 0.0 | 0.00 | 0.00 | 0.00 | 46 | 1005.8 |
| 20260830173009 | 23 | 270 | 20.9 | 0.0 | 0.00 | 0.00 | 0.00 | 46 | 1005.8 |
| 20260830171509 | 25 | 270 | 20.9 | 0.0 | 0.00 | 0.00 | 0.00 | 43 | 1005.5 |
| 20260830170010 | 25 | 270 | 16.1 | 0.0 | 0.00 | 0.00 | 0.00 | 43 | 1005.5 |
| 20260830164510 | 25 | 270 | 16.1 | 0.0 | 0.00 | 0.00 | 0.00 | 42 | 1005.3 |
| 20260830163009 | 25 | 280 | 16.1 | 0.0 | 0.00 | 0.00 | 0.00 | 42 | 1005.3 |
| 20260830161509 | 26 | 270 | 19.3 | 0.0 | 0.00 | 0.00 | 0.00 | 40 | 1005.1 |
| 20260830160009 | 26 | 270 | 19.3 | 0.0 | 0.00 | 0.00 | 0.00 | 40 | 1005.1 |
| 20260830154509 | 25 | 270 | 19.3 | 0.0 | 0.00 | 0.00 | 0.00 | 41 | 1005.1 |
| 20260830153010 | 25 | 280 | 16.1 | 0.0 | 0.00 | 0.00 | 0.00 | 41 | 1005.1 |
| 20260830151509 | 26 | 240 | 19.3 | 0.0 | 0.00 | 0.00 | 0.00 | 39 | 1004.9 |
| 20260830150010 | 26 | 240 | 19.3 | 0.0 | 0.00 | 0.00 | 0.00 | 39 | 1004.9 |
| 20260830144509 | 25 | 240 | 19.3 | 0.0 | 0.00 | 0.00 | 0.00 | 42 | 1004.9 |
| 20260830143010 | 25 | 240 | 17.7 | 0.0 | 0.00 | 0.00 | 0.00 | 42 | 1004.9 |
| 20260830141509 | 25 | 240 | 17.7 | 0.0 | 0.00 | 0.00 | 0.00 | 45 | 1004.8 |
| 20260830140009 | 25 | 230 | 20.9 | 0.0 | 0.00 | 0.00 | 0.00 | 45 | 1004.8 |
| 20260830134510 | 25 | 240 | 19.3 | 0.0 | 0.00 | 0.00 | 0.00 | 46 | 1004.7 |
| 20260830133009 | 25 | 240 | 19.3 | 0.0 | 0.00 | 0.00 | 0.00 | 46 | 1004.7 |
| 20260830131509 | 25 | 240 | 19.3 | 0.0 | 0.00 | 0.00 | 0.00 | 50 | 1004.6 |
| 20260830130009 | 25 | 230 | 16.1 | 0.0 | 0.00 | 0.00 | 0.00 | 50 | 1004.6 |
| 20260830124509 | 25 | 230 | 16.1 | 0.0 | 0.00 | 0.00 | 0.00 | 51 | 1004.8 |
| 20260830123010 | 25 | 220 | 20.9 | 0.0 | 0.00 | 0.00 | 0.00 | 51 | 1004.8 |
| 20260830121510 | 25 | 220 | 20.9 | 0.0 | 0.00 | 0.00 | 0.00 | 47 | 1004.6 |
| 20260830120009 | 25 | 220 | 24.1 | 0.0 | 0.00 | 0.00 | 0.00 | 47 | 1004.6 |
| 20260830114509 | 25 | 240 | 22.5 | 0.0 | 0.00 | 0.00 | 0.00 | 49 | 1004.6 |
| 20260830113010 | 25 | 240 | 22.5 | 0.0 | 0.00 | 0.00 | 0.00 | 49 | 1004.6 |
| 20260830111509 | 25 | 230 | 20.9 | 0.0 | 0.00 | 0.00 | 0.00 | 49 | 1004.5 |
| 20260830110009 | 25 | 230 | 20.9 | 0.0 | 0.00 | 0.00 | 0.00 | 49 | 1004.5 |
| 20260830104509 | 25 | 230 | 20.9 | 0.0 | 0.00 | 0.00 | 0.00 | 50 | 1004.5 |
| 20260830103009 | 25 | 250 | 19.3 | 0.0 | 0.00 | 0.00 | 0.00 | 50 | 1004.5 |
| 20260830101509 | 25 | 230 | 22.5 | 0.0 | 0.00 | 0.00 | 0.00 | 50 | 1004.7 |
| 20260830100009 | 25 | 230 | 22.5 | 0.0 | 0.00 | 0.00 | 0.00 | 50 | 1004.7 |
| 20260830094509 | 23 | 220 | 19.3 | 0.0 | 0.00 | 0.00 | 0.00 | 53 | 1004.6 |
| 20260830093009 | 23 | 220 | 19.3 | 0.0 | 0.00 | 0.00 | 0.00 | 53 | 1004.6 |
| 20260830091509 | 23 | 220 | 17.7 | 0.0 | 0.00 | 0.00 | 0.00 | 55 | 1004.6 |
| 20260830090009 | 23 | 220 | 17.7 | 0.0 | 0.00 | 0.00 | 0.00 | 55 | 1004.6 |
| 20260830084509 | 23 | 220 | 17.7 | 0.0 | 0.00 | 0.00 | 0.00 | 56 | 1004.6 |
| 20260830083010 | 23 | 220 | 17.7 | 0.0 | 0.00 | 0.00 | 0.00 | 56 | 1004.6 |
| 20260830081509 | 22 | 220 | 16.1 | 0.0 | 0.00 | 0.00 | 0.00 | 59 | 1004.5 |